INTELSAT 19 (IS-19)

Last updated on Tue Sep 22 2026 00:03:12 GMT+0000 (Coordinated Universal Time)

1 38356U 12030A 26264.57662355 -.00000060 00000+0 00000+0 0 9995 2 38356 0.0182 220.8658 0003094 324.9727 188.2255 1.00272905 51417
UTC large
Height (km)
Speed (km/s)
/
Latitude / Longitude
Inclination (degrees)
Orbital Period (minutes)
Azimuth
Elevation
Range (km)
Doppler Factor

Next 0 passes for location: London (51.5072 / 0.1276)

No passes found over London.
INTELSAT 19 (IS-19)